Saltar para o conteúdo principal

Madeira, Quinta Grande

ID 1210984 · 32.6630, -17.0150 mapa

Última leitura · 2026-05-09 19:00 (Europe/Lisbon)

Temperatura
14.4 °C
Humidade
47 %
Pressão
Precipitação
0.0 mm
Radiação
1,056 W/m²
Velocidade do vento
Direcção do vento
Sem vento

Histórico de 24 horas

Hora (Europe/Lisbon) Temperatura Humidade Pressão Chuva Vento Direcção
2026-05-09 19:00 14.4 °C 47 % 0.0 mm
2026-05-09 18:00 14.2 °C 52 % 0.0 mm
2026-05-09 17:00 15.0 °C 47 % 0.0 mm
2026-05-09 16:00 15.1 °C 44 % 0.0 mm
2026-05-09 15:00 15.8 °C 40 % 0.0 mm
2026-05-09 14:00 15.4 °C 47 % 0.0 mm
2026-05-09 13:00 15.6 °C 46 % 0.0 mm
2026-05-09 12:00 15.0 °C 44 % 0.0 mm
2026-05-09 11:00 14.7 °C 46 % 0.0 mm
2026-05-09 10:00 14.1 °C 42 % 0.0 mm
2026-05-09 09:00 12.7 °C 49 % 0.0 mm
2026-05-09 08:00 12.2 °C 45 % 0.6 mm
2026-05-09 07:00 12.3 °C 46 % 0.0 mm
2026-05-09 06:00 12.5 °C 49 % 0.1 mm
2026-05-09 05:00 12.3 °C 51 % 0.2 mm
2026-05-09 04:00 12.6 °C 49 % 0.6 mm
2026-05-09 03:00 12.9 °C 42 % 0.0 mm
2026-05-09 02:00 12.3 °C 47 % 0.0 mm
2026-05-09 01:00 12.7 °C 45 % 0.0 mm
2026-05-09 00:00 12.9 °C 44 % 0.0 mm
2026-05-08 23:00 13.2 °C 43 % 0.0 mm
2026-05-08 22:00 13.0 °C 52 % 0.0 mm
2026-05-08 21:00 12.9 °C 56 % 0.1 mm
2026-05-08 20:00 12.8 °C 53 % 0.9 mm